Погода в Адиль-Янгиюрте

Россия / Республика Дагестан     43°33′50″N   46°35′03″E
темп.,
°C
ветер,
м/с
пор.,
м/с
влажн.,
%
обл.,
%
осадки,
мм/ч
давл.,
гПа
погр.,
м
23 апреля, пт
пт2300:00+11зсз338350 0.0 102146
03:00+11зсз5987100 0.0 1022450
06:00+11сз4794100 1.2 1023498
09:00+11з4890100 1.7 1024564
12:00+17зсз696211 0.3 10241382
15:00+20зсз68405 0.3 10222122
18:00+17з33543 0.0 102233
21:00+13вюв01595 0.0 102211
24 апреля, сб
сб2400:00+11вюв336710 0.0 102026
03:00+10в46715 0.0 101884
06:00+11в387620 0.0 1018158
09:00+18вюв585155 0.0 1017898
12:00+22в334194 0.0 10171546
15:00+20в75475 0.0 1018994
18:00+15в476249 0.0 1020258
21:00+11в357491 0.0 1021100
25 апреля, вс
вс2500:00+12в237058 0.0 102085
03:00+11всв117452 0.0 102113
06:00+11всв227652 0.0 102295
09:00+16в345973 0.0 1021629
12:00+21в564421 0.0 10191598
15:00+20в6740100 0.0 10171356
18:00+15в5955100 0.0 1017385
21:00+11всв41073100 0.0 1015260
26 апреля, пн
пн2600:00+9св2390100 0.0 101342
03:00+9зсз349696 0.0 101369
06:00+10зюз2491100 0.0 1012107
09:00+16сз336516 0.0 1010700
12:00+21ссв334946 0.0 1006916
15:00+22ссз3346100 0.0 10061304
18:00+18с226199 0.1 100729
21:00+15з4866100 0.3 1010144
27 апреля, вт
вт2700:00+12сз6109087 0.3 1014486
03:00+13зсз51086100 0.4 1014607
06:00+12зсз51083100 0.3 1017694
09:00+11з5885100 0.6 1019642
12:00+12зсз4576100 1.3 1019766
15:00+14зсз226294 1.3 10181023
18:00+13ссз2366100 0.0 101876
21:00+12зюз1166100 0.0 101810